[[{"header":{"parameterUnit":"m.s-1","parameterCategory":1,"la1":30.2991,"la2":30.254,"lo1":-89.0895,"lo2":-89.0444,"dy":0.0017,"dx":0.0017,"nx":28,"ny":28,"refTime":"2023-06-27T21:00:00:Z","depth":0,"parameterNumber":2,"parameterNumberName":"U-component_of_WINDS"},"data":[0,0,0,0,0,0,0,0,0,0,0,0,0,0,0,0,0,0,0,0,0,0,0,0,0,0,0,0,0,0,0,0,0,0,0,0,0,0,0,0,0,0,0,0,0,0,0,0,0,0,0,0,0,0,0,0,0,0,-0.0894,-0.0892,0,-0.077,-0.0769,-0.0767,-0.0696,-0.0696,-0.0696,-0.0696,-0.0567,-0.0564,-0.056,0,0,0,0,0,0,0,0,0,0,0,0,0,-0.1066,-0.1063,-0.0894,-0.0892,-0.0891,-0.077,-0.0768,-0.0767,-0.0696,-0.0696,-0.0696,-0.0696,-0.0568,-0.0564,-0.056,0,0,0,0,0,0,0,0,0,0,0,0,0,-0.0972,-0.1062,-0.0894,-0.0841,-0.0835,-0.0771,-0.0768,-0.0766,-0.0697,-0.0696,-0.0696,-0.0695,-0.0569,-0.0564,-0.056,-0.0537,0,0,-0.0545,-0.0543,0,0,0,0,0,0,0,0,-0.0977,-0.0965,-0.0851,-0.0845,-0.0838,-0.0748,-0.0782,-0.0689,-0.0697,-0.0749,-0.0696,-0.0695,-0.0627,-0.0618,-0.0595,-0.0531,-0.0526,-0.0544,-0.0542,-0.0539,-0.0538,0,0,0,0,0,0,0,-0.0984,-0.097,-0.0845,-0.0849,-0.0841,-0.0822,-0.0809,-0.0764,-0.0692,-0.0745,-0.0739,-0.0726,-0.0624,-0.06,-0.0592,-0.0524,-0.0545,-0.054,-0.0537,-0.0535,-0.0432,-0.0433,0,0,0,0,0,0,-0.0999,-0.0976,-0.0849,-0.0841,-0.0908,-0.082,-0.0804,-0.0777,-0.0692,-0.0679,-0.0726,-0.0723,-0.0608,-0.0597,-0.0587,-0.0553,-0.054,-0.0535,-0.0532,-0.0432,-0.0432,-0.0433,0,0,0,0,0,0,-0.1003,-0.0988,-0.0854,-0.0907,-0.0889,-0.0817,-0.0788,-0.0775,-0.0751,-0.0678,-0.0664,-0.0715,-0.0608,-0.0594,-0.055,-0.0548,-0.0533,-0.0528,-0.0432,-0.0432,-0.0432,-0.0487,0,0,0,0,0,0,-0.1008,-0.099,-0.0982,-0.0908,-0.0886,-0.082,-0.0787,-0.0773,-0.0743,-0.0738,-0.0664,-0.0652,-0.0606,-0.0557,-0.0545,-0.0541,-0.0525,-0.0432,-0.0432,-0.0432,-0.0486,-0.049,-0.0493,0,0,0,0,0,-0.1015,-0.1003,-0.0982,-0.0967,-0.0874,-0.082,-0.0808,-0.0756,-0.0744,-0.0734,-0.0686,-0.0654,-0.055,-0.0553,-0.0539,-0.0534,-0.0432,-0.0432,-0.0432,-0.0484,-0.0489,-0.0493,0,0,0,0,0,0,-0.1079,-0.0992,-0.0968,-0.0932,-0.0884,-0.0808,-0.0795,-0.0763,-0.0718,-0.0714,-0.0652,-0.0636,-0.0597,-0.0561,-0.0566,-0.0506,-0.0487,-0.0485,-0.0531,-0.0535,-0.0539,-0.0548,-0.0521,0,0,0,0,0,-0.1089,-0.1053,-0.0978,-0.0953,-0.093,-0.0867,-0.0841,-0.0806,-0.0753,-0.0733,-0.0682,-0.0631,-0.0587,-0.0559,-0.0515,-0.048,-0.0462,-0.0469,-0.0473,-0.0476,-0.0474,-0.0451,-0.0453,-0.0434,-0.0434,-0.0434,0,0,-0.1109,-0.1057,-0.1038,-0.0965,-0.0924,-0.0886,-0.085,-0.0813,-0.0784,-0.0727,-0.0682,-0.0643,-0.0582,-0.0542,-0.0522,-0.0511,-0.0475,-0.0476,-0.048,-0.0476,-0.0452,-0.0453,-0.0455,-0.0434,-0.0434,-0.0434,0,0,-0.1126,-0.1084,-0.1057,-0.1016,-0.0954,-0.0912,-0.0906,-0.0834,-0.0806,-0.076,-0.0715,-0.068,-0.0605,-0.0563,-0.0532,-0.0532,-0.0499,-0.0519,-0.0538,-0.0516,-0.0518,-0.0519,-0.0517,-0.0517,-0.0517,-0.0517,-0.0518,0,-0.1159,-0.1102,-0.1048,-0.1012,-0.0981,-0.0927,-0.0898,-0.0861,-0.0787,-0.0766,-0.0755,-0.0659,-0.0614,-0.0563,-0.0562,-0.0539,-0.0529,-0.0527,-0.0522,-0.0522,-0.0522,-0.052,-0.052,-0.052,-0.052,-0.052,-0.0519,0,-0.1144,-0.1105,-0.1091,-0.1021,-0.0988,-0.0957,-0.0896,-0.0869,-0.0835,-0.0794,-0.0746,-0.0691,-0.0633,-0.0618,-0.0586,-0.0561,-0.0556,-0.0534,-0.0514,-0.0528,-0.0524,-0.0523,-0.0524,-0.0523,-0.0522,-0.0522,0,0,-0.1199,-0.1098,-0.1094,-0.1061,-0.0987,-0.0956,-0.0921,-0.0865,-0.0841,-0.0792,-0.076,-0.0697,-0.0676,-0.0641,-0.0603,-0.0584,-0.0584,-0.0563,-0.0561,-0.0568,-0.0552,-0.0568,-0.0568,-0.0562,-0.0562,-0.0562,-0.0556,0,-0.1204,-0.114,-0.109,-0.1044,-0.1006,-0.0953,-0.0922,-0.0873,-0.0833,-0.0794,-0.0749,-0.0705,-0.0681,-0.0659,-0.0638,-0.0589,-0.058,-0.0589,-0.053,-0.0529,-0.0547,-0.0566,-0.0584,-0.0582,-0.0555,-0.0554,-0.0554,0,-0.1203,-0.1155,-0.1106,-0.1035,-0.1017,-0.099,-0.0934,-0.0898,-0.084,-0.0812,-0.0772,-0.0732,-0.0691,-0.0675,-0.0616,-0.0623,-0.0596,-0.0568,-0.0567,-0.0559,-0.0542,-0.0558,-0.058,-0.0579,-0.0552,-0.0552,-0.0552,0,-0.1246,-0.117,-0.113,-0.1103,-0.1019,-0.1002,-0.0966,-0.0908,-0.0876,-0.0826,-0.0805,-0.0751,-0.0721,-0.0679,-0.0625,-0.0619,-0.0571,-0.0551,-0.0545,-0.0547,-0.0537,-0.0539,-0.0554,-0.0522,-0.0522,-0.0522,-0.0522,0,-0.1257,-0.1229,-0.1148,-0.1123,-0.1089,-0.103,-0.0997,-0.0957,-0.0905,-0.0871,-0.0821,-0.079,-0.0721,-0.068,-0.0637,-0.0594,-0.0581,-0.0556,-0.0544,-0.056,-0.0563,-0.0541,-0.0539,-0.0522,-0.0522,-0.0522,-0.0522,0,-0.13,-0.1245,-0.1197,-0.1122,-0.1102,-0.108,-0.1014,-0.0987,-0.0944,-0.09,-0.0887,-0.0818,-0.0767,-0.0709,-0.0639,-0.061,-0.057,-0.0554,-0.059,-0.0583,-0.058,-0.058,-0.0581,-0.0577,-0.0549,-0.0549,-0.055,0,-0.1311,-0.1287,-0.1209,-0.1182,-0.1148,-0.1106,-0.1073,-0.1014,-0.0982,-0.0914,-0.0895,-0.084,-0.0794,-0.0715,-0.0658,-0.0603,-0.0585,-0.0589,-0.0577,-0.0592,-0.0583,-0.0585,-0.0581,-0.0592,-0.0593,-0.0594,-0.0594,0,-0.1334,-0.1308,-0.1264,-0.1209,-0.1172,-0.1126,-0.1079,-0.1059,-0.099,-0.0956,-0.0904,-0.0868,-0.0796,-0.0742,-0.068,-0.0641,-0.0605,-0.0598,-0.0594,-0.0609,-0.063,-0.0617,-0.0598,-0.0598,-0.0598,-0.0598,-0.0597,-0.0597,-0.136,-0.1336,-0.1277,-0.1229,-0.1186,-0.1142,-0.1113,-0.1065,-0.1021,-0.0958,-0.0926,-0.0874,-0.0814,-0.0727,-0.0689,-0.0647,-0.0635,-0.0629,-0.0627,-0.0626,-0.0629,-0.0637,-0.0635,-0.0635,-0.0635,-0.0635,-0.0634,0,-0.138,-0.1339,-0.1296,-0.123,-0.1191,-0.1162,-0.1106,-0.1076,-0.1031,-0.0979,-0.0934,-0.0873,-0.0819,-0.0758,-0.07,-0.0678,-0.0659,-0.0664,-0.0665,-0.0656,-0.0644,-0.0653,-0.068,-0.068,-0.068,-0.068,-0.068,-0.068,-0.1386,-0.1344,-0.131,-0.1245,-0.1203,-0.1153,-0.1123,-0.1082,-0.104,-0.0974,-0.093,-0.089,-0.0833,-0.0771,-0.072,-0.0703,-0.0683,-0.0693,-0.0671,-0.0661,-0.0657,-0.0654,-0.0662,-0.069,-0.069,-0.0686,-0.0686,-0.0686]},{"header":{"parameterUnit":"m.s-1","parameterCategory":1,"la1":30.2991,"la2":30.254,"lo1":-89.0895,"lo2":-89.0444,"dy":0.0017,"dx":0.0017,"nx":28,"ny":28,"refTime":"2023-06-27T21:00:00:Z","depth":0,"parameterNumber":3,"parameterNumberName":"V-component_of_WINDS"},"data":[0,0,0,0,0,0,0,0,0,0,0,0,0,0,0,0,0,0,0,0,0,0,0,0,0,0,0,0,0,0,0,0,0,0,0,0,0,0,0,0,0,0,0,0,0,0,0,0,0,0,0,0,0,0,0,0,0,0,1.5674,1.5675,0,1.575,1.5751,1.5751,1.5754,1.5753,1.5753,1.5752,1.5827,1.5829,1.5832,0,0,0,0,0,0,0,0,0,0,0,0,0,1.553,1.5532,1.5674,1.5675,1.5676,1.575,1.5751,1.5752,1.5755,1.5753,1.5752,1.5751,1.5826,1.5829,1.5832,0,0,0,0,0,0,0,0,0,0,0,0,0,1.5597,1.5533,1.5674,1.5686,1.5688,1.5749,1.5751,1.5752,1.5755,1.5753,1.5752,1.5751,1.5825,1.5829,1.5833,1.5886,0,0,1.5846,1.5848,0,0,0,0,0,0,0,0,1.5594,1.5603,1.5683,1.5685,1.5688,1.5741,1.5727,1.5797,1.5755,1.5729,1.5752,1.575,1.5799,1.5805,1.5822,1.5889,1.5893,1.5846,1.5849,1.5851,1.5852,0,0,0,0,0,0,0,1.5589,1.5599,1.5704,1.5684,1.5687,1.5687,1.5695,1.574,1.5771,1.5731,1.5732,1.5741,1.58,1.5818,1.5824,1.5894,1.5846,1.585,1.5852,1.5854,1.6009,1.6011,0,0,0,0,0,0,1.5582,1.5595,1.5701,1.5706,1.5636,1.5691,1.57,1.5725,1.577,1.5776,1.5742,1.5741,1.5812,1.5819,1.5827,1.5893,1.5851,1.5854,1.5857,1.6008,1.601,1.6011,0,0,0,0,0,0,1.5579,1.5591,1.5698,1.5651,1.5665,1.5695,1.5723,1.5728,1.5746,1.5778,1.5783,1.5755,1.5811,1.5821,1.5872,1.5896,1.5856,1.586,1.6006,1.6008,1.6011,1.6025,0,0,0,0,0,0,1.5575,1.559,1.5611,1.5651,1.5667,1.5743,1.5725,1.573,1.5754,1.5753,1.5792,1.5797,1.5811,1.5865,1.5876,1.5901,1.5864,1.6004,1.6007,1.601,1.6023,1.6028,1.6032,0,0,0,0,0,1.557,1.5611,1.5612,1.5625,1.5694,1.5744,1.5753,1.5768,1.5755,1.5777,1.5798,1.5796,1.5891,1.5871,1.5882,1.5909,1.6003,1.6006,1.601,1.6021,1.6027,1.6032,0,0,0,0,0,0,1.5572,1.5617,1.5618,1.5674,1.5706,1.5744,1.5771,1.5774,1.5808,1.5806,1.5822,1.5831,1.5882,1.59,1.5877,1.5963,1.5945,1.5951,1.595,1.5956,1.596,1.5955,1.5867,0,0,0,0,0,1.5579,1.5617,1.5653,1.5699,1.5715,1.5741,1.5763,1.5772,1.5805,1.5817,1.5842,1.5873,1.591,1.5934,1.5969,1.6025,1.6034,1.6049,1.6054,1.6058,1.6063,1.6095,1.6103,1.6023,1.6023,1.6023,0,0,1.5594,1.5623,1.5646,1.5701,1.5726,1.5764,1.5752,1.5792,1.5821,1.5823,1.5874,1.5893,1.5928,1.5982,1.6007,1.5999,1.6087,1.6062,1.6065,1.6068,1.61,1.6107,1.6114,1.6026,1.6025,1.6025,0,0,1.5641,1.5667,1.5709,1.5734,1.5773,1.579,1.58,1.5839,1.5852,1.5903,1.5906,1.594,1.6003,1.6029,1.605,1.6108,1.6108,1.6119,1.6143,1.6175,1.6181,1.6187,1.6208,1.6216,1.6124,1.6124,1.6124,0,1.5655,1.5713,1.5729,1.5771,1.5795,1.5801,1.5843,1.5867,1.5915,1.5931,1.5922,1.6002,1.6026,1.6087,1.6101,1.6118,1.613,1.6115,1.6179,1.6185,1.619,1.6211,1.6219,1.6125,1.6125,1.6125,1.6125,0,1.5728,1.5769,1.5798,1.5846,1.5873,1.5915,1.5937,1.5963,1.597,1.5987,1.604,1.6069,1.6111,1.6126,1.6133,1.6188,1.6182,1.6175,1.6158,1.6199,1.6219,1.6227,1.6127,1.6126,1.6126,1.6125,0,0,1.5778,1.5836,1.5846,1.5869,1.5912,1.5944,1.5986,1.6028,1.6051,1.6083,1.6119,1.6173,1.6168,1.6192,1.6201,1.6228,1.6274,1.6219,1.622,1.6229,1.6338,1.6344,1.6353,1.6274,1.6276,1.6277,1.6336,0,1.5831,1.5907,1.5924,1.5989,1.6027,1.6033,1.6069,1.61,1.6118,1.6152,1.6171,1.621,1.6199,1.6214,1.6241,1.6263,1.6296,1.6258,1.6308,1.6309,1.63,1.6363,1.6369,1.6423,1.6343,1.6345,1.6346,0,1.5903,1.5939,1.6009,1.6049,1.6065,1.6098,1.6139,1.6172,1.6206,1.6218,1.6245,1.6252,1.6296,1.6276,1.6336,1.6311,1.6331,1.6345,1.6347,1.6353,1.6331,1.6371,1.644,1.6449,1.6358,1.6357,1.6356,0,1.5934,1.6,1.6051,1.6069,1.6117,1.614,1.616,1.6194,1.6219,1.6255,1.6271,1.6311,1.6332,1.6363,1.638,1.6364,1.644,1.6421,1.6451,1.645,1.6467,1.6466,1.6541,1.6479,1.6479,1.6478,1.6478,0,1.5991,1.6034,1.6065,1.6097,1.6145,1.6163,1.621,1.623,1.626,1.6295,1.6302,1.6335,1.6355,1.6391,1.6404,1.6453,1.6462,1.6473,1.6476,1.6473,1.6472,1.6487,1.6484,1.6481,1.648,1.648,1.6479,0,1.6034,1.6057,1.6113,1.6154,1.6165,1.6199,1.6234,1.6264,1.6282,1.6327,1.6338,1.6366,1.6409,1.6429,1.6481,1.649,1.6546,1.6546,1.6535,1.6536,1.6565,1.6563,1.6654,1.6667,1.6595,1.6596,1.6596,0,1.607,1.6103,1.6148,1.6173,1.6195,1.6234,1.626,1.6279,1.6306,1.6349,1.6374,1.6417,1.6453,1.652,1.6545,1.6585,1.6587,1.6616,1.6592,1.6589,1.6588,1.6587,1.6591,1.662,1.6621,1.6621,1.6622,0,1.6131,1.6141,1.6179,1.6222,1.6253,1.6287,1.632,1.6339,1.6364,1.6394,1.6438,1.6465,1.6519,1.6562,1.6604,1.6625,1.6628,1.6629,1.6638,1.6636,1.6628,1.6634,1.6547,1.6627,1.6626,1.6626,1.6626,1.6625,1.6173,1.6203,1.624,1.6282,1.631,1.6341,1.6372,1.6395,1.6432,1.6479,1.6488,1.6535,1.6569,1.6626,1.6648,1.6685,1.6679,1.6691,1.6695,1.6698,1.6701,1.6622,1.6693,1.6693,1.6692,1.6692,1.6692,0,1.6236,1.626,1.6299,1.6346,1.6379,1.638,1.6417,1.6445,1.6487,1.6519,1.6555,1.6606,1.6647,1.6676,1.6718,1.6742,1.6745,1.6753,1.6752,1.6757,1.6703,1.6692,1.675,1.675,1.675,1.675,1.675,1.675,1.6272,1.6324,1.6339,1.6404,1.6428,1.6476,1.6497,1.6526,1.6552,1.6609,1.6645,1.6664,1.6695,1.674,1.6778,1.6785,1.6801,1.6809,1.6817,1.6766,1.676,1.6755,1.6744,1.6812,1.6812,1.6867,1.6868,1.6868]}]]